#timestamp,LO_Frequency,Hit 
1500444015.3,286048788.0,N
1500444035.1,286048788.2,N
1500444055.9,286048785.6,N
1500444075.7,286048786.0,N
1500444095.5,286048785.3,N
1500444115.4,286048785.7,N
1500444135.2,286048786.5,N
1500444155.0,286048784.2,N
1500444156.0,286048784.2,N
1500444175.8,286048786.4,N
1500444195.6,286048784.0,N
1500444215.5,286048787.9,N
1500444235.3,286048785.4,N
1500444255.1,286048786.3,N
1500444275.9,286048786.2,N
1500444295.7,286048785.6,N
1500444315.6,286048785.5,N
1500444335.4,286048785.9,N
1500444355.2,286048785.9,N
1500444375.1,286048786.4,N
1500444376.0,286048786.4,N
1500444395.8,286048786.2,N
1500444415.6,286048786.6,N
1500444435.5,286048786.4,N
1500444455.3,286048783.8,N
1500444475.2,286048785.7,N
1500444495.9,286048785.6,N
1500444515.7,286048785.7,N
1500444535.6,286048787.9,N
1500444555.4,286048785.4,N
1500444575.3,286048786.6,N
1500444595.1,286048786.4,N
1500444596.0,286048786.4,N
1500444615.8,286048786.1,N
1500444635.7,286048786.3,N
1500444655.5,286048783.8,N
1500444675.3,286048785.1,N
1500444695.2,286048786.6,N
1500444715.0,286048786.5,N
1500444715.9,286048786.5,N
1500444735.8,286048783.9,N
1500444755.6,286048785.8,N
1500444775.4,286048783.8,N
1500444795.3,286048785.5,N
1500444815.1,286048785.4,N
1500444835.9,286048785.9,N
1500444855.7,286048786.0,N
1500444875.5,286048785.9,N
1500444895.4,286048788.3,N
1500444915.2,286048786.9,N
1500444935.0,286048790.0,N
1500444935.9,286048790.0,N
1500444955.8,286048786.2,N
1500444975.6,286048786.6,N
1500444995.5,286048784.2,N
1500445015.3,286048786.6,N
1500445035.1,286048786.3,N
1500445055.9,286048786.8,N
1500445075.7,286048786.7,N
1500445095.5,286048784.6,N
1500445115.4,286048784.8,N
1500445135.2,286048784.8,N
1500445155.1,286048785.1,N
1500445156.0,286048785.1,N
1500445175.8,286048784.2,N
1500445195.6,286048785.2,N
1500445215.5,286048783.8,N
1500445235.3,286048784.3,N
1500445255.1,286048785.1,N
1500445275.9,286048783.9,N
1500445295.7,286048784.3,N
1500445315.6,286048783.8,N
1500445335.4,286048786.6,N
1500445355.2,286048786.4,N
1500445375.1,286048785.8,N
1500445376.0,286048785.8,N
1500445395.8,286048786.1,N
1500445415.6,286048785.5,N
1500445435.5,286048785.6,N
1500445455.3,286048787.9,N
1500445475.2,286048785.7,N
1500445495.9,286048786.0,N
1500445515.7,286048786.6,N
1500445535.6,286048785.9,N
1500445555.4,286048785.4,N
1500445575.2,286048785.4,N
1500445595.1,286048788.1,N
1500445596.0,286048788.1,N
1500445615.8,286048788.3,N
1500445635.7,286048785.9,N
1500445655.5,286048785.5,N
1500445675.3,286048786.6,N
1500445695.2,286048786.5,N
1500445715.9,286048788.3,N
1500445735.7,286048786.4,N
1500445755.6,286048786.2,N
1500445775.4,286048785.6,N
1500445795.3,286048786.2,N
1500445815.1,286048786.3,N
1500445816.0,286048786.3,N
1500445835.8,286048783.8,N
1500445855.7,286048786.7,N
1500445875.5,286048786.7,N
1500445895.3,286048786.8,N
1500445915.2,286048785.8,N
1500445935.0,286048785.7,N
1500445935.9,286048785.7,N
1500445955.8,286048786.0,N
1500445975.6,286048785.8,N
1500445995.4,286048785.7,N
1500446015.3,286048785.9,N
1500446035.1,286048785.5,N
1500446055.8,286048786.3,N
1500446075.7,286048786.4,N
1500446095.5,286048783.7,N
1500446115.4,286048786.8,N
1500446135.2,286048786.8,N
1500446155.0,286048786.6,N
1500446155.9,286048786.6,N
1500446175.8,286048786.7,N
1500446195.6,286048784.6,N
1500446215.4,286048785.0,N
1500446235.3,286048784.1,N
1500446255.1,286048784.3,N
1500446275.9,286048784.3,N
1500446295.7,286048786.4,N
1500446315.5,286048784.7,N
1500446335.4,286048782.5,N
1500446355.2,286048784.6,N
1500446375.0,286048784.6,N
1500446376.0,286048784.6,N
1500446395.8,286048784.4,N
1500446415.6,286048784.8,N
1500446435.5,286048783.2,N
1500446455.3,286048783.2,N
1500446475.1,286048782.7,N
1500446495.9,286048785.1,N
1500446515.7,286048782.7,N
1500446535.6,286048782.6,N
1500446555.4,286048782.1,N
1500446575.2,286048783.3,N
1500446595.1,286048785.1,N
1500446596.0,286048785.1,N
1500446615.8,286048782.1,N
1500446635.6,286048782.8,N
1500446655.5,286048782.7,N
1500446675.3,286048783.5,N
1500446695.2,286048783.2,N
1500446715.9,286048782.6,N
1500446735.7,286048784.6,N
1500446755.6,286048784.3,N
1500446775.4,286048782.6,N
1500446795.2,286048782.4,N
1500446815.1,286048784.9,N
1500446816.0,286048784.9,N
1500446835.8,286048783.4,N
1500446855.7,286048782.7,N
1500446875.5,286048780.6,N
1500446895.3,286048780.8,N
1500446915.2,286048782.8,N
1500446935.0,286048782.9,N
1500446935.9,286048782.9,N
1500446955.7,286048781.5,N
1500446975.6,286048781.5,N
1500446995.4,286048780.9,N
1500447015.3,286048780.8,N
1500447035.1,286048782.5,N
1500447036.0,286048782.5,N
1500447055.8,286048782.9,N
1500447075.7,286048782.1,N
1500447095.5,286048782.8,N
1500447115.3,286048782.2,N
1500447135.2,286048783.3,N
1500447155.0,286048781.8,N
1500447155.9,286048781.8,N
1500447175.8,286048780.9,N
1500447195.6,286048780.7,N
1500447215.4,286048780.5,N
1500447235.3,286048783.1,N
1500447255.1,286048780.7,N
1500447275.8,286048780.9,N
1500447295.7,286048785.0,N
1500447315.5,286048785.0,N
1500447335.4,286048782.9,N
1500447355.2,286048782.4,N
1500447375.0,286048785.2,N
1500447375.9,286048785.2,N
1500447395.8,286048782.2,N
1500447415.6,286048782.9,N
1500447435.4,286048780.6,N
1500447455.3,286048783.5,N
1500447475.1,286048782.9,N
1500447495.9,286048780.5,N
1500447515.7,286048780.5,N
1500447535.5,286048782.6,N
1500447555.4,286048780.9,N
1500447575.2,286048781.8,N
1500447595.0,286048781.1,N
1500447595.9,286048781.1,N
